Wind_Speed
17 18 18 17 17 18 20 22 23 26 28 30 31 30 31 32 30 30 31 33 36 37 38 37 40 41 42 37 40 41 35 46 46 50 50 48 45 46 48 46 45 41 38
22 23 23 23 23 24 23 26 29 30 32 35 35 35 35 35 35 33 34 35 37 38 38 39 40 42 37 41 47 40 39 46 45 45 45 41 44 48 47 46 39 35 38
26 28 26 26 26 26 28 28 31 32 35 37 38 38 37 36 36 35 34 36 38 38 39 45 44 43 42 41 37 35 40 39 44 46 43 38 43 42 45 40 34 35 37
31 29 31 30 30 30 30 31 32 33 35 38 40 40 39 38 37 37 36 35 38 39 41 44 46 42 41 45 41 39 42 41 45 42 35 39 42 42 41 37 33 37 39
37 34 33 34 35 35 35 35 35 34 35 38 41 41 38 37 36 36 37 35 39 41 43 44 46 46 51 52 44 40 38 44 42 33 36 39 41 39 35 34 33 35 37
40 40 39 39 40 41 40 39 37 37 36 37 40 40 39 36 35 33 35 36 39 40 44 44 44 46 41 49 41 35 41 42 29 32 35 38 38 38 33 33 34 35 37
43 42 42 44 45 45 44 42 39 38 38 38 39 37 35 35 34 33 34 35 38 41 43 42 44 47 46 51 37 36 39 28 30 33 35 37 40 36 32 32 33 35 36
47 47 47 48 47 46 44 42 40 39 39 39 39 36 35 34 33 33 34 35 37 40 44 44 44 46 48 48 38 39 33 25 31 33 34 35 38 31 29 31 31 32 33
50 52 52 51 49 47 45 38 37 39 41 41 42 40 39 37 35 36 35 40 44 42 43 42 46 44 49 42 30 21 27 33 33 31 31 35 35 29 28 32 33 33 31
53 53 52 50 50 50 41 37 39 39 41 42 41 39 40 40 38 37 37 36 42 42 41 44 46 45 50 46 19 27 30 34 36 36 36 35 31 27 28 30 32 34 30
55 54 53 49 45 47 48 44 43 44 40 40 38 39 39 37 35 33 34 36 39 40 40 43 43 43 45 28 21 30 31 33 36 39 39 37 28 26 27 27 28 28 29
53 52 51 51 50 51 50 47 47 45 43 39 37 37 37 36 35 34 34 35 39 38 39 42 46 46 40 26 28 32 33 34 37 38 36 29 27 29 31 29 27 26 26
48 49 52 49 50 49 48 48 48 46 43 40 35 34 33 31 32 35 37 38 38 38 41 43 44 44 24 24 30 33 34 34 37 40 31 26 28 29 30 30 31 31 29
60 55 52 51 54 52 48 49 48 44 44 42 39 36 35 35 34 36 38 37 38 37 41 39 45 39 22 28 32 33 34 35 34 28 27 28 29 29 30 30 28 28 28
61 58 55 53 52 52 49 48 49 44 42 44 44 43 40 40 36 36 39 36 39 38 41 41 45 31 23 33 34 33 31 31 25 24 23 25 26 28 30 29 28 26 25
64 61 60 58 56 55 54 54 53 53 52 49 50 49 46 43 38 37 36 37 39 38 40 42 44 31 25 32 33 37 37 32 29 28 30 30 29 29 29 29 28 26 23
69 67 63 61 61 59 58 58 59 62 59 58 54 47 44 43 37 37 34 36 37 39 38 38 32 24 30 32 32 34 27 26 26 26 26 28 27 26 28 30 29 26 23
62 61 60 61 59 59 59 59 60 55 53 51 46 43 40 40 37 34 32 32 34 36 34 42 29 26 31 30 32 27 24 25 23 24 25 25 28 29 32 32 29 25 20
35 22 26 26 28 27 31 38 47 51 48 47 43 40 38 36 32 30 32 30 34 32 38 35 19 26 28 29 27 22 21 19 22 24 25 26 27 29 30 28 23 19 15
18 15 18 20 24 30 35 35 39 32 33 23 33 36 31 28 26 28 28 29 33 33 33 18 23 24 25 26 21 18 18 20 22 23 24 26 27 25 24 21 17 14 10
14 16 19 22 28 15 15 13 20 25 12 21 34 26 22 24 24 22 25 29 31 30 27 21 25 24 25 18 15 14 18 20 20 20 22 24 23 21 19 17 14 11 9
16 22 20 21 17 8 4 11 12 15 11 11 16 19 24 25 18 19 24 28 29 28 34 21 22 22 18 12 11 14 16 16 17 16 20 23 21 20 21 22 22 22 20
16 15 14 16 4 6 15 10 8 11 10 9 10 16 19 13 10 18 25 28 23 18 18 20 20 16 10 7 10 12 13 14 14 15 17 20 21 21 23 25 25 26 29
11 8 5 6 10 7 4 9 6 3 5 6 11 11 15 22 27 31 25 19 15 16 16 18 15 8 6 5 7 9 11 13 14 14 16 17 19 22 24 25 28 29 31
8 5 8 7 5 0 4 6 4 5 5 5 5 10 9 16 26 24 11 13 15 15 17 13 6 5 3 4 5 7 9 12 14 14 14 16 17 18 21 23 24 27 30
7 9 1 6 4 6 5 4 5 5 3 6 9 12 18 20 12 9 11 13 14 16 12 7 3 1 3 3 4 6 8 9 10 10 10 13 15 17 18 20 22 23 24
Wind_Direction
292 294 298 296 296 304 305 305 307 306 308 308 309 310 313 313 314 313 313 317 317 319 319 314 310 299 311 299 300 300 301 308 307 305 300 301 312 313 317 317 319 318 318
289 295 302 305 309 315 312 309 310 307 307 307 307 308 308 308 312 312 314 315 317 320 319 322 314 311 305 304 301 299 297 299 310 311 302 312 314 317 319 323 318 317 321
286 292 296 299 302 306 307 305 302 300 300 301 303 303 303 304 306 307 309 312 313 315 316 316 318 303 310 317 302 297 300 307 312 304 312 314 313 317 321 320 322 322 328
290 288 291 295 298 300 300 299 298 295 293 295 297 299 301 301 303 305 306 307 309 309 311 312 317 317 312 317 311 297 301 306 307 310 311 312 315 320 321 323 322 329 328
292 292 291 293 295 296 297 297 296 295 294 292 295 296 298 300 304 305 307 305 304 306 310 313 313 313 311 311 310 303 301 308 309 313 311 314 316 318 322 319 324 325 324
290 289 291 291 292 293 294 295 296 294 294 292 293 295 297 299 300 303 306 306 304 306 307 314 316 311 316 322 308 303 306 303 308 303 309 310 316 325 321 319 321 324 327
287 286 286 288 289 290 291 295 295 293 293 292 294 298 301 304 302 301 305 305 305 306 311 313 310 312 312 318 307 306 303 304 305 308 309 315 322 321 317 317 321 327 327
286 286 284 287 286 286 289 293 294 293 292 293 295 298 303 305 299 301 305 305 306 307 309 312 308 311 313 313 303 297 298 308 303 309 312 316 314 312 312 314 320 328 327
284 285 284 283 282 284 287 289 290 292 290 289 291 293 296 301 297 296 296 302 305 305 307 311 315 313 313 309 300 304 304 303 308 306 312 315 312 310 315 316 322 326 325
280 279 279 279 282 285 281 286 287 287 287 284 287 290 292 296 299 298 296 301 301 305 307 307 316 313 308 304 298 302 303 306 308 313 317 316 308 311 319 321 321 319 319
281 279 277 278 275 273 284 284 285 284 282 281 283 282 287 292 297 299 298 299 300 305 304 308 315 310 311 296 308 300 306 308 310 315 317 315 311 317 316 315 314 311 311
279 281 282 280 277 277 280 281 280 282 283 279 281 287 293 290 294 298 297 299 302 306 301 305 309 310 295 304 303 306 308 311 311 312 314 309 312 316 317 318 313 310 311
280 283 283 280 280 280 278 277 278 278 281 278 282 288 292 289 296 301 302 295 302 300 300 302 309 309 292 304 303 306 309 309 313 315 312 314 316 316 315 316 315 314 311
290 283 279 275 276 277 275 275 272 272 280 277 275 282 288 288 296 297 297 297 300 298 302 305 307 312 300 303 305 307 309 312 310 306 307 311 311 314 315 315 314 310 305
280 280 277 274 272 271 270 270 268 265 274 276 281 284 285 292 291 292 291 296 297 300 302 305 307 301 307 306 308 306 304 305 305 305 311 313 318 318 317 315 314 311 307
279 278 275 272 267 266 265 263 261 260 264 271 275 277 280 286 287 285 287 291 297 302 303 304 304 300 298 303 314 315 319 322 321 327 330 331 327 321 319 316 314 312 308
280 279 276 273 269 266 263 261 262 258 262 268 270 273 277 279 281 281 284 285 297 303 306 306 304 304 310 313 314 313 317 317 323 326 332 328 323 322 320 319 316 311 307
282 282 277 272 272 270 268 267 263 262 262 264 266 268 271 274 276 278 279 286 298 300 304 303 300 310 308 314 313 317 324 325 330 334 331 324 321 319 317 316 314 308 304
280 281 297 284 278 278 279 271 263 256 260 262 261 256 261 268 273 271 279 284 297 303 303 297 312 308 310 317 320 324 327 335 339 333 327 325 323 321 320 318 315 311 305
285 315 297 297 302 291 280 272 262 253 224 233 245 254 258 262 264 270 279 288 298 304 290 310 312 312 318 322 323 329 342 344 336 336 337 337 333 332 331 331 329 324 319
271 289 300 308 310 276 358 307 259 194 263 225 234 247 252 246 249 270 281 290 295 288 290 315 307 316 323 320 329 347 351 345 346 348 353 357 356 359 9 16 17 17 16
294 293 312 310 312 342 284 261 236 243 252 227 237 244 253 254 280 279 287 295 287 279 292 302 307 322 317 326 352 1 355 359 358 6 10 16 31 38 39 41 46 49 48
303 299 313 310 235 279 342 252 214 213 222 242 249 254 257 252 274 281 280 290 289 285 301 299 315 312 317 353 9 6 13 15 19 24 29 39 41 43 48 51 55 59 62
324 304 316 245 325 18 89 166 170 185 200 203 246 236 256 265 267 275 271 274 305 295 299 310 308 315 342 24 19 25 34 34 40 45 48 49 52 53 54 57 63 67 71
304 278 140 109 304 81 115 123 128 147 193 216 183 259 265 259 263 263 275 294 289 302 304 306 307 332 58 50 49 57 57 56 58 62 58 52 50 50 57 63 65 70 74
257 199 113 140 123 137 134 115 107 151 170 212 217 247 250 245 249 280 287 291 301 299 308 306 322 34 122 97 95 90 84 75 66 63 61 48 54 60 65 71 72 74 81
Height
5829 5826 5823 5821 5818 5814 5811 5808 5806 5802 5799 5797 5794 5791 5788 5784 5782 5778 5775 5771 5767 5762 5757 5753 5749 5744 5739 5734 5730 5725 5721 5717 5713 5708 5703 5698 5693 5685 5678 5670 5659 5650 5644
5822 5819 5816 5813 5811 5808 5805 5802 5799 5796 5793 5790 5787 5784 5781 5778 5775 5772 5767 5763 5759 5755 5751 5745 5740 5736 5728 5723 5720 5714 5711 5708 5703 5698 5693 5687 5681 5673 5664 5656 5650 5642 5634
5815 5811 5809 5806 5804 5801 5798 5796 5793 5790 5786 5783 5780 5777 5773 5770 5767 5764 5760 5756 5752 5747 5742 5737 5732 5726 5720 5715 5708 5705 5702 5696 5692 5688 5682 5676 5670 5665 5655 5647 5639 5634 5626
5806 5805 5801 5799 5797 5794 5792 5788 5785 5782 5779 5776 5772 5769 5766 5763 5759 5756 5753 5749 5744 5740 5734 5728 5723 5716 5711 5705 5700 5696 5691 5688 5683 5677 5673 5667 5660 5654 5645 5637 5633 5624 5618
5796 5794 5793 5790 5788 5785 5782 5779 5776 5773 5770 5767 5764 5761 5757 5755 5751 5748 5745 5741 5737 5732 5726 5720 5715 5709 5704 5698 5692 5687 5683 5678 5672 5667 5663 5657 5651 5644 5635 5630 5623 5618 5611
5788 5784 5783 5780 5777 5774 5772 5769 5766 5764 5760 5758 5755 5752 5749 5746 5743 5740 5737 5734 5729 5724 5718 5712 5707 5701 5694 5688 5681 5677 5674 5668 5664 5661 5655 5649 5642 5633 5626 5623 5618 5612 5606
5777 5775 5774 5771 5767 5765 5762 5760 5757 5754 5751 5748 5745 5743 5740 5737 5735 5731 5729 5725 5721 5715 5710 5704 5698 5692 5685 5678 5672 5668 5665 5661 5657 5653 5647 5639 5630 5625 5621 5617 5611 5605 5599
5766 5763 5762 5759 5756 5754 5752 5750 5747 5744 5741 5738 5735 5733 5731 5729 5726 5723 5721 5717 5713 5707 5701 5695 5690 5683 5677 5670 5664 5660 5656 5652 5650 5644 5638 5631 5625 5620 5614 5609 5604 5598 5593
5753 5751 5748 5746 5744 5742 5740 5739 5737 5734 5732 5729 5726 5724 5722 5720 5717 5715 5713 5708 5704 5699 5693 5686 5681 5675 5668 5662 5657 5652 5649 5644 5641 5638 5632 5624 5617 5611 5606 5601 5596 5592 5588
5739 5737 5734 5733 5731 5729 5729 5726 5726 5724 5722 5719 5717 5714 5712 5711 5708 5706 5703 5698 5694 5689 5684 5678 5673 5666 5659 5654 5649 5645 5642 5637 5631 5626 5621 5617 5610 5604 5599 5595 5590 5586 5584
5725 5723 5720 5720 5719 5716 5715 5714 5714 5712 5711 5709 5708 5705 5703 5701 5698 5696 5693 5689 5685 5681 5676 5671 5664 5658 5652 5646 5643 5639 5634 5629 5622 5616 5610 5605 5600 5596 5594 5592 5586 5582 5578
5710 5709 5708 5706 5706 5704 5703 5702 5700 5700 5699 5699 5697 5695 5693 5691 5689 5687 5684 5681 5677 5673 5668 5663 5657 5650 5644 5639 5636 5632 5627 5620 5614 5609 5605 5598 5593 5588 5586 5582 5581 5578 5572
5697 5696 5694 5693 5691 5689 5690 5690 5689 5688 5687 5687 5687 5685 5684 5682 5680 5677 5674 5671 5668 5664 5661 5655 5651 5644 5636 5633 5629 5625 5620 5614 5607 5600 5596 5591 5586 5583 5580 5576 5572 5568 5565
5681 5681 5679 5679 5677 5675 5675 5675 5675 5676 5675 5675 5676 5675 5675 5673 5672 5669 5665 5663 5659 5655 5651 5648 5642 5635 5630 5627 5622 5618 5613 5606 5601 5596 5590 5585 5581 5577 5573 5568 5565 5561 5559
5667 5665 5665 5663 5661 5659 5659 5659 5660 5662 5662 5662 5662 5663 5664 5663 5662 5660 5656 5655 5651 5647 5644 5640 5635 5628 5624 5619 5615 5611 5607 5602 5597 5591 5584 5580 5574 5569 5564 5561 5558 5555 5552
5648 5648 5646 5644 5642 5641 5641 5640 5643 5646 5648 5650 5652 5652 5652 5653 5652 5650 5648 5646 5642 5640 5637 5632 5628 5623 5619 5613 5606 5600 5594 5589 5584 5577 5571 5567 5564 5561 5558 5554 5550 5547 5544
5626 5625 5624 5622 5621 5621 5622 5623 5624 5629 5633 5636 5638 5640 5641 5642 5642 5641 5640 5638 5635 5633 5629 5624 5620 5616 5611 5606 5602 5598 5592 5586 5579 5574 5568 5564 5560 5556 5551 5547 5543 5539 5536
5604 5601 5600 5599 5601 5602 5603 5604 5605 5614 5619 5622 5626 5629 5631 5632 5633 5632 5632 5631 5629 5626 5622 5617 5612 5609 5605 5600 5597 5591 5586 5580 5575 5570 5565 5560 5555 5550 5545 5539 5534 5530 5528
5591 5582 5586 5586 5586 5586 5586 5586 5586 5594 5603 5609 5614 5617 5619 5622 5624 5624 5624 5623 5621 5618 5615 5611 5607 5604 5600 5596 5591 5585 5581 5576 5571 5567 5562 5556 5550 5544 5538 5532 5527 5524 5521
5582 5580 5583 5583 5582 5578 5574 5574 5573 5579 5588 5583 5598 5607 5610 5613 5615 5616 5616 5615 5613 5611 5608 5603 5600 5598 5593 5590 5585 5582 5577 5573 5570 5564 5558 5552 5546 5540 5534 5528 5523 5520 5517
5584 5582 5580 5577 5571 5566 5564 5565 5571 5576 5580 5579 5591 5598 5602 5606 5608 5607 5608 5607 5606 5604 5600 5597 5596 5592 5588 5585 5582 5578 5574 5572 5567 5562 5557 5551 5544 5538 5533 5528 5523 5518 5515
5574 5577 5573 5569 5564 5563 5563 5562 5570 5574 5577 5581 5586 5591 5594 5598 5600 5600 5601 5600 5600 5597 5596 5592 5590 5587 5584 5582 5579 5576 5575 5571 5567 5563 5558 5553 5547 5543 5538 5533 5528 5523 5518
5573 5571 5569 5564 5564 5564 5566 5565 5570 5574 5576 5579 5584 5588 5592 5595 5596 5596 5595 5595 5593 5591 5591 5589 5585 5583 5581 5579 5577 5577 5574 5572 5568 5564 5561 5557 5553 5549 5545 5541 5536 5531 5526
5568 5567 5566 5565 5565 5567 5567 5570 5572 5575 5579 5582 5584 5585 5587 5590 5591 5591 5591 5589 5588 5588 5587 5584 5581 5579 5578 5577 5578 5577 5575 5573 5570 5567 5564 5562 5560 5557 5554 5550 5545 5542 5538
5565 5565 5565 5564 5569 5570 5571 5572 5575 5578 5579 5581 5583 5584 5586 5587 5587 5587 5586 5585 5585 5584 5582 5579 5577 5577 5576 5577 5577 5577 5576 5575 5573 5571 5569 5567 5565 5563 5561 5558 5555 5552 5550
5563 5563 5563 5566 5571 5573 5574 5574 5576 5578 5580 5582 5583 5583 5582 5582 5582 5583 5583 5583 5581 5579 5577 5575 5575 5575 5576 5577 5578 5578 5577 5577 5576 5575 5573 5572 5571 5569 5568 5566 5564 5562 5560